Temp
8 8 10 9 9 8 9 9 11 12 12 12 13 12 13 13 13 13 13 13 13 13 11 11 10 10 10 9 10 10 10 10 10 10 10 10 9 9 9 9 9 9 9 9
7 8 10 8 9 8 9 8 10 12 12 12 12 13 13 13 14 13 13 14 13 13 12 11 11 10 10 10 10 10 10 10 10 10 10 10 9 9 9 9 9 9 9 9
7 8 8 9 9 8 8 8 9 11 11 11 11 12 13 14 14 13 13 12 12 13 13 12 12 11 10 10 10 10 10 10 10 10 10 10 10 9 9 9 9 9 9 9
6 7 7 7 8 8 7 10 9 10 10 12 11 14 13 14 14 14 14 13 13 13 13 13 12 12 11 11 10 10 10 10 10 10 10 10 10 10 10 9 9 9 9 9
6 7 6 6 9 7 8 8 9 9 8 9 11 12 14 13 14 14 14 14 14 13 13 13 14 13 12 11 11 10 10 9 10 10 10 10 10 10 10 10 9 9 9 9
5 6 6 6 8 7 8 8 8 9 9 10 10 11 13 12 14 15 15 14 14 14 14 14 13 13 12 11 11 10 10 10 10 10 11 11 11 10 10 10 10 10 10 10
5 6 5 6 7 7 7 7 9 9 10 11 11 11 11 13 14 15 15 15 15 15 14 14 14 14 13 13 12 11 10 11 11 11 11 11 11 11 11 10 10 10 10 10
4 6 5 6 7 7 7 7 10 9 11 12 11 11 12 12 14 14 14 15 15 15 15 15 14 14 14 13 13 13 12 12 11 11 11 11 11 11 11 10 10 10 10 10
1 4 6 6 6 6 7 7 8 9 9 11 13 11 11 12 13 13 14 14 15 15 15 15 14 14 14 13 13 13 13 13 12 12 12 11 11 11 11 11 11 11 11 10
0 1 4 5 6 7 7 8 7 8 10 11 12 12 12 12 12 14 14 14 15 16 16 15 15 15 14 14 13 13 13 13 13 12 12 11 11 12 11 11 11 11 11 10
-1 -1 2 4 5 6 6 7 8 8 9 11 12 13 12 12 13 14 14 15 15 15 16 16 16 16 15 14 14 13 13 12 12 12 12 11 12 12 12 11 11 11 11 11
-2 -3 -2 2 4 5 5 6 8 8 9 9 10 12 12 12 13 13 14 14 15 16 16 16 16 16 16 15 14 14 13 12 12 12 12 12 12 12 12 12 12 11 11 11
-3 -4 -2 2 4 4 3 4 6 7 8 9 10 10 12 12 14 13 14 15 15 15 16 16 16 16 16 16 15 15 14 13 12 12 12 12 12 12 12 12 12 12 12 11
-4 -3 -3 1 0 -2 -1 1 3 4 7 8 9 10 11 11 13 14 14 14 15 16 16 16 16 16 16 17 16 16 15 14 13 12 12 12 13 13 13 12 12 12 12 12
-4 -5 -4 -3 -3 -2 -2 -1 1 1 4 7 9 9 10 11 13 13 14 15 15 16 16 16 16 17 17 17 17 16 15 14 14 13 12 13 13 13 13 12 12 12 12 12
-5 -5 -4 -4 -2 -1 0 2 1 1 3 3 7 9 10 11 12 13 13 14 14 15 16 16 16 17 17 17 17 16 16 15 14 14 13 13 13 13 13 13 13 13 13 12
-5 -5 -5 -3 -2 -2 -1 2 2 2 3 4 6 9 10 11 11 12 13 13 14 15 15 16 16 17 17 17 18 17 16 16 15 14 13 13 13 13 14 13 13 13 13 13
-6 -6 -6 -4 -3 -0 3 3 3 2 4 6 8 9 10 11 11 12 13 13 14 15 15 16 17 17 18 18 18 17 17 16 15 14 14 13 13 13 14 14 14 14 14 13
-6 -6 -5 -4 -3 -1 0 1 0 1 3 5 8 10 10 11 11 12 12 13 14 15 16 16 17 17 18 18 18 18 17 17 16 15 14 14 13 14 15 15 14 14 14 14
-5 -6 -6 -5 -4 0 -1 0 1 -1 1 5 7 10 9 11 11 12 12 13 14 15 16 16 17 17 18 18 18 18 17 17 16 16 15 15 15 15 15 15 15 14 14 14
-6 -7 -6 -5 -5 -3 -2 -1 -0 -1 1 3 6 7 8 9 10 11 12 13 14 15 16 17 17 17 17 18 18 18 17 17 16 15 15 14 14 14 14 14 14 14 14 14
-6 -6 -5 -5 -5 -3 -3 -2 -1 -1 0 2 4 5 6 7 8 10 10 11 14 14 15 16 17 17 17 18 18 17 17 17 16 15 15 14 14 13 14 14 14 14 14 14
-5 -4 -4 -4 -3 -3 -2 -2 -3 -1 -0 1 3 4 4 5 7 8 9 8 10 13 13 14 15 16 17 17 17 17 16 17 16 15 15 14 14 14 14 14 14 14 14 15
-5 -4 -4 -4 -4 -3 -3 -3 -3 -2 -0 1 2 2 3 5 6 7 9 9 9 9 11 12 13 15 16 17 17 17 16 17 16 16 15 15 14 15 14 14 15 15 15 15
-5 -4 -4 -4 -3 -3 -2 -3 -2 -2 -1 1 2 2 3 3 5 6 7 8 9 9 9 10 12 13 15 16 16 17 16 16 16 16 15 15 15 15 15 15 15 16 16 15
-5 -5 -4 -4 -3 -3 -3 -2 -2 -1 -1 0 2 2 3 3 4 5 7 8 8 9 8 10 11 13 14 15 15 15 15 16 16 16 16 15 15 14 14 15 15 15 15 14
Height
3111 3114 3109 3119 3124 3129 3132 3134 3138 3141 3145 3148 3148 3151 3153 3155 3157 3159 3161 3164 3167 3171 3175 3178 3181 3185 3189 3193 3197 3201 3206 3210 3213 3216 3220 3223 3226 3228 3231 3233 3235 3236 3238 3238
3110 3105 3115 3118 3122 3126 3129 3131 3136 3139 3140 3145 3146 3147 3149 3151 3155 3158 3160 3162 3165 3168 3170 3174 3178 3181 3185 3190 3194 3198 3203 3207 3211 3215 3219 3223 3226 3227 3229 3231 3234 3236 3238 3238
3105 3108 3110 3115 3118 3122 3125 3129 3134 3138 3140 3141 3143 3143 3144 3146 3149 3151 3154 3159 3161 3165 3168 3172 3174 3177 3181 3185 3190 3195 3200 3204 3209 3213 3216 3220 3222 3225 3227 3230 3233 3235 3237 3238
3101 3106 3107 3109 3112 3118 3122 3126 3131 3134 3137 3138 3140 3136 3138 3141 3143 3146 3150 3154 3157 3160 3164 3167 3172 3174 3177 3182 3187 3191 3196 3200 3205 3210 3213 3217 3222 3225 3229 3231 3232 3234 3235 3237
3096 3098 3102 3105 3109 3114 3117 3123 3127 3132 3134 3136 3134 3135 3131 3134 3135 3140 3145 3149 3153 3156 3160 3163 3167 3171 3175 3178 3182 3186 3191 3195 3200 3205 3211 3215 3218 3222 3226 3228 3231 3233 3234 3236
3092 3095 3098 3100 3108 3110 3117 3121 3123 3128 3132 3127 3125 3129 3122 3126 3129 3136 3141 3145 3148 3151 3155 3159 3163 3167 3170 3173 3177 3182 3185 3190 3195 3200 3206 3211 3215 3219 3222 3226 3229 3232 3234 3235
3087 3089 3093 3098 3102 3106 3111 3115 3120 3123 3120 3107 3119 3121 3116 3121 3125 3131 3136 3141 3144 3147 3150 3153 3157 3161 3165 3167 3171 3176 3180 3184 3189 3195 3201 3207 3212 3216 3220 3223 3226 3229 3232 3234
3082 3085 3087 3092 3093 3099 3101 3107 3104 3106 3101 3104 3114 3100 3104 3117 3120 3124 3130 3136 3139 3140 3144 3148 3152 3157 3161 3165 3168 3171 3175 3180 3185 3190 3196 3202 3208 3213 3217 3219 3222 3226 3228 3231
3079 3077 3079 3082 3085 3093 3095 3095 3101 3104 3102 3100 3095 3102 3104 3109 3112 3120 3124 3129 3133 3136 3138 3143 3146 3151 3156 3160 3164 3167 3172 3176 3181 3186 3191 3197 3203 3209 3213 3216 3218 3222 3225 3227
3076 3075 3072 3075 3079 3083 3086 3093 3099 3100 3096 3090 3086 3091 3090 3098 3105 3112 3118 3123 3129 3132 3134 3138 3141 3145 3151 3155 3160 3165 3168 3172 3177 3182 3187 3193 3199 3205 3210 3212 3215 3218 3221 3224
3074 3074 3070 3069 3071 3077 3080 3082 3086 3089 3087 3082 3084 3083 3088 3093 3098 3105 3111 3117 3123 3127 3130 3134 3137 3141 3145 3150 3155 3160 3165 3168 3171 3176 3183 3188 3194 3199 3203 3208 3212 3214 3217 3220
3072 3070 3066 3063 3065 3068 3070 3073 3078 3077 3080 3081 3082 3080 3084 3088 3093 3099 3106 3112 3117 3122 3125 3128 3132 3135 3139 3143 3149 3154 3160 3164 3168 3173 3178 3183 3189 3194 3198 3203 3207 3211 3213 3217
3067 3068 3065 3060 3063 3063 3064 3064 3066 3072 3074 3070 3077 3079 3081 3084 3088 3094 3099 3105 3109 3114 3118 3122 3126 3129 3133 3138 3142 3148 3154 3159 3164 3168 3173 3178 3182 3187 3192 3197 3202 3206 3209 3212
3064 3064 3064 3058 3057 3061 3059 3058 3061 3062 3065 3068 3068 3076 3077 3080 3084 3088 3092 3096 3100 3104 3109 3114 3118 3123 3128 3132 3137 3141 3148 3154 3159 3162 3167 3171 3176 3182 3187 3192 3196 3200 3204 3208
3061 3061 3060 3056 3054 3054 3052 3051 3054 3055 3060 3059 3066 3070 3072 3074 3080 3084 3086 3088 3092 3097 3101 3107 3111 3116 3120 3124 3130 3136 3142 3148 3153 3157 3161 3165 3171 3177 3181 3184 3190 3195 3198 3202
3056 3057 3055 3050 3049 3048 3044 3045 3047 3049 3051 3052 3059 3062 3067 3069 3070 3075 3077 3082 3086 3090 3095 3100 3104 3108 3113 3118 3125 3130 3136 3141 3146 3151 3155 3161 3165 3170 3174 3179 3183 3188 3192 3196
3051 3052 3053 3047 3047 3044 3040 3034 3040 3044 3042 3049 3053 3059 3062 3066 3065 3068 3070 3074 3078 3082 3087 3092 3097 3103 3107 3113 3119 3124 3130 3135 3140 3145 3151 3155 3159 3163 3168 3173 3177 3181 3186 3190
3045 3048 3051 3046 3046 3039 3031 3030 3034 3037 3039 3041 3047 3052 3058 3060 3061 3063 3065 3069 3072 3076 3080 3085 3090 3096 3102 3107 3112 3117 3123 3130 3136 3141 3145 3149 3153 3157 3163 3167 3171 3176 3180 3184
3040 3043 3047 3046 3040 3032 3030 3029 3033 3036 3036 3034 3037 3042 3045 3054 3056 3057 3059 3062 3065 3068 3073 3077 3082 3090 3095 3100 3106 3113 3118 3124 3130 3135 3138 3142 3147 3152 3156 3161 3166 3171 3175 3179
3033 3038 3042 3044 3040 3024 3021 3023 3026 3028 3031 3028 3030 3034 3039 3047 3051 3053 3053 3056 3057 3060 3064 3069 3074 3080 3087 3093 3099 3106 3113 3119 3125 3129 3132 3136 3142 3147 3151 3157 3161 3166 3170 3174
3027 3034 3036 3039 3040 3028 3019 3020 3022 3026 3028 3024 3026 3030 3034 3039 3044 3047 3048 3051 3053 3054 3055 3058 3062 3069 3076 3085 3092 3101 3107 3115 3120 3124 3129 3133 3139 3143 3148 3153 3157 3161 3165 3168
3026 3032 3032 3033 3033 3027 3017 3015 3018 3019 3020 3022 3025 3028 3031 3034 3038 3044 3045 3045 3047 3048 3047 3048 3052 3057 3063 3074 3084 3093 3101 3108 3114 3119 3125 3130 3135 3139 3143 3147 3151 3155 3159 3162
3023 3024 3022 3023 3020 3016 3012 3012 3011 3016 3018 3021 3023 3024 3028 3031 3035 3039 3042 3043 3042 3042 3043 3043 3047 3051 3057 3066 3075 3083 3092 3100 3108 3115 3120 3125 3129 3134 3138 3142 3146 3150 3153 3157
3017 3018 3017 3017 3014 3012 3012 3013 3012 3014 3016 3019 3022 3023 3026 3029 3031 3035 3038 3041 3041 3040 3039 3040 3044 3050 3056 3062 3070 3077 3085 3094 3102 3109 3115 3119 3124 3128 3132 3136 3140 3144 3148 3152
3019 3016 3015 3015 3013 3010 3008 3011 3012 3013 3015 3016 3020 3022 3024 3025 3028 3030 3034 3037 3038 3038 3039 3039 3043 3047 3052 3058 3065 3073 3080 3087 3094 3099 3105 3111 3118 3123 3127 3130 3135 3138 3140 3145
3022 3019 3015 3012 3011 3008 3008 3011 3011 3013 3014 3015 3017 3020 3022 3023 3025 3027 3030 3033 3035 3037 3040 3040 3041 3044 3049 3054 3060 3067 3073 3079 3085 3090 3095 3100 3107 3113 3119 3123 3126 3130 3132 3133
Wind_Speed
35 37 45 36 34 23 20 16 23 22 25 24 23 19 17 13 10 13 12 12 15 19 24 27 27 31 29 29 29 26 25 25 24 22 19 17 15 14 13 12 10 8 6 5
31 42 35 34 35 31 26 14 18 25 21 25 20 25 21 20 16 15 14 13 12 16 25 29 29 31 32 30 30 30 28 27 25 23 20 18 16 16 17 16 13 11 8 6
36 23 37 35 35 34 33 27 17 17 20 21 16 24 25 26 24 25 24 19 18 17 17 25 31 32 33 32 32 31 31 29 27 25 24 21 21 21 20 16 13 12 9 8
29 36 13 20 38 34 30 36 26 21 11 21 21 20 25 32 31 28 25 22 20 20 20 21 27 32 34 32 31 31 32 32 30 28 27 24 22 19 16 15 15 12 9 8
21 26 34 32 20 31 30 27 32 25 18 14 15 17 30 23 32 32 29 27 25 22 23 23 21 26 31 33 34 33 32 34 34 32 29 27 26 23 21 20 18 13 10 8
23 23 26 24 34 12 26 13 13 24 26 23 32 21 28 28 36 33 30 26 23 23 25 25 23 24 27 33 35 36 35 33 36 35 32 30 28 26 25 22 18 15 12 10
21 26 22 20 15 24 26 19 11 9 14 20 31 28 33 27 35 34 28 25 23 23 25 29 26 25 24 26 31 37 38 35 37 37 34 31 29 28 25 23 19 16 14 11
11 16 23 23 29 22 29 29 15 13 13 19 29 19 32 40 18 36 33 28 20 25 27 30 31 23 24 22 27 30 34 36 38 38 35 32 30 29 27 25 22 18 15 13
4 13 18 30 29 30 21 40 33 13 10 14 27 32 28 31 40 33 18 24 24 24 26 28 32 32 26 27 24 29 29 32 35 36 35 34 33 31 30 27 24 21 18 17
5 9 19 20 33 34 33 25 28 27 17 12 11 29 31 36 28 35 41 35 25 24 26 27 28 32 33 26 28 25 29 30 31 33 34 34 33 31 30 29 27 23 21 20
13 10 10 18 19 33 33 24 29 28 29 14 12 16 26 34 36 39 31 41 35 24 26 25 27 27 28 34 26 27 28 30 33 34 34 34 34 33 33 31 29 26 24 23
14 7 11 22 16 22 30 31 36 24 27 38 23 25 13 19 26 28 36 30 34 28 20 24 25 28 26 30 32 28 29 33 33 33 35 35 34 34 34 32 30 28 26 25
5 5 7 14 20 23 14 23 31 34 25 32 26 27 17 18 21 27 30 31 34 33 24 21 19 27 30 30 31 32 29 32 34 36 36 37 37 36 35 33 31 30 28 26
9 13 12 14 9 9 7 10 21 26 32 32 26 29 34 33 24 26 21 20 26 38 36 31 26 21 23 29 30 32 34 30 32 34 36 38 37 37 36 33 32 32 30 29
12 12 15 22 25 25 26 23 16 16 24 27 33 23 24 23 33 27 29 22 19 33 37 34 28 24 23 31 33 33 33 34 32 32 35 37 35 35 36 36 34 33 32 31
18 12 13 23 24 23 28 30 25 21 25 26 26 31 28 17 26 31 34 30 24 24 29 27 28 26 25 25 31 35 33 33 32 33 32 31 34 35 36 36 34 34 33 31
19 16 9 13 10 15 17 34 27 20 24 26 30 32 27 31 30 27 27 29 31 28 33 34 31 30 29 28 29 33 32 33 34 32 33 30 33 36 35 35 35 33 32 31
20 17 9 15 15 6 11 13 18 24 22 25 31 33 37 27 27 31 32 29 28 30 32 40 38 35 31 30 31 33 33 33 30 30 33 34 33 34 33 34 33 31 31 29
26 20 11 8 11 14 9 15 18 12 19 24 30 34 42 43 36 31 27 27 28 33 33 35 42 39 37 36 34 31 33 30 29 29 34 32 31 29 31 31 30 29 28 27
27 28 20 15 8 5 12 24 22 15 10 22 30 37 33 37 34 36 34 29 26 26 33 39 47 48 47 43 41 33 33 31 30 24 25 27 26 28 27 26 26 25 25 23
24 22 24 21 15 15 13 14 23 9 11 19 27 32 32 31 31 29 26 26 24 24 28 39 45 48 49 47 43 38 38 34 31 30 27 25 24 25 24 25 25 25 24 24
16 14 15 17 12 13 12 10 13 14 19 20 24 29 28 27 26 23 17 20 28 28 20 25 35 42 46 49 46 41 41 37 36 32 26 24 25 27 27 27 26 24 24 24
10 16 9 10 9 11 10 14 26 23 21 23 25 28 26 26 24 21 16 12 11 14 16 19 26 31 35 37 37 40 45 43 38 35 32 30 31 31 31 28 26 25 23 21
3 2 2 3 5 10 13 3 9 23 24 24 24 26 26 24 25 25 21 18 16 13 17 22 24 27 30 32 34 37 48 47 42 38 34 34 36 36 32 31 30 26 25 24
18 20 11 14 16 10 9 5 11 19 23 25 24 24 24 23 22 24 25 23 22 20 18 21 25 29 31 35 36 36 49 50 47 43 41 38 40 36 35 33 30 29 26 24
23 19 16 21 12 10 7 4 6 15 21 23 24 23 21 21 22 23 24 25 25 24 24 23 25 28 30 32 35 38 42 48 50 49 47 43 38 33 27 29 29 30 33 34
Wind_Direction
201 206 213 209 214 214 218 229 224 221 210 218 229 236 241 237 229 228 224 217 216 198 193 198 196 196 198 200 200 202 203 200 198 194 193 193 192 192 198 192 187 195 189 167
213 217 221 220 220 221 219 230 229 226 229 227 234 237 246 235 232 242 251 242 236 210 200 200 201 201 202 204 204 206 205 205 205 200 194 194 204 196 195 198 197 194 187 184
223 224 232 225 227 224 223 228 220 225 232 235 235 246 242 234 232 240 244 242 238 229 226 210 205 205 206 206 205 208 209 208 207 205 202 196 202 197 195 195 202 190 180 184
232 228 222 225 235 229 229 226 219 217 231 229 227 242 234 233 235 239 235 228 229 229 227 222 219 213 211 210 208 208 210 210 210 208 207 201 203 201 196 195 200 194 190 190
227 229 227 234 238 228 234 238 234 229 245 262 227 234 235 232 237 234 231 228 233 235 233 233 226 222 219 216 213 209 209 211 211 209 209 203 202 198 201 203 207 200 199 205
232 237 237 236 234 237 229 223 230 234 238 247 231 228 234 224 232 226 228 224 237 239 231 228 229 228 222 218 218 216 212 211 210 210 208 207 204 203 202 208 208 205 202 210
243 235 227 220 209 225 230 203 203 214 214 235 232 234 226 225 235 229 229 231 239 234 232 224 227 226 218 215 212 217 216 212 207 207 207 209 209 208 203 204 207 206 205 209
237 234 222 220 218 218 208 198 196 207 217 231 223 236 227 223 219 233 235 240 249 230 227 222 221 216 215 213 217 216 214 210 208 204 207 208 212 213 208 205 205 207 204 206
251 233 222 218 211 210 206 214 215 248 256 249 222 235 241 230 233 229 219 235 241 227 225 230 228 222 223 214 217 219 216 213 211 210 206 210 213 215 213 209 206 205 205 209
262 282 228 223 217 210 210 217 207 217 236 234 211 221 228 222 223 232 236 235 239 230 217 228 235 235 229 224 218 219 221 218 216 214 214 212 214 216 216 214 212 208 208 214
274 261 250 223 218 214 210 204 213 218 223 234 245 229 232 226 230 227 233 236 236 231 222 228 227 224 232 232 224 213 222 220 216 215 214 216 215 215 216 217 217 213 213 218
275 259 261 244 207 215 218 221 217 219 218 230 248 242 249 225 229 232 233 236 235 237 222 217 213 220 224 228 228 221 214 221 220 216 216 218 218 217 218 217 218 218 217 221
244 257 281 263 241 230 229 225 214 223 231 228 221 226 204 207 210 216 218 230 233 231 224 213 214 219 211 219 225 225 218 220 219 217 218 219 219 219 219 218 219 221 222 224
253 249 242 261 286 294 254 218 215 216 223 226 230 236 239 244 225 212 201 206 222 226 234 233 235 234 226 218 217 220 221 214 220 217 216 220 222 221 219 220 221 223 225 226
251 256 263 269 279 279 269 244 237 254 220 223 226 236 235 247 230 223 229 214 225 211 229 233 228 237 227 221 209 215 214 215 216 223 221 220 221 222 220 219 221 224 226 228
248 262 281 290 283 286 270 244 250 248 228 229 219 223 231 247 232 231 232 238 229 222 216 219 222 222 224 221 217 213 214 210 210 220 231 227 221 220 220 220 220 223 226 228
251 257 286 279 312 308 268 239 238 237 231 212 219 218 225 234 241 240 234 235 234 229 217 212 210 212 217 221 213 216 214 211 212 216 222 231 226 222 221 220 221 222 224 228
230 238 253 280 299 237 232 229 225 213 224 208 212 216 222 226 228 241 243 244 233 231 227 217 215 211 218 218 212 211 209 210 212 213 219 228 225 223 219 219 220 221 222 225
233 238 245 256 274 286 177 156 152 181 205 205 194 209 217 224 240 247 247 253 241 229 226 229 219 213 216 220 219 216 204 207 209 214 221 233 226 214 211 214 216 217 219 220
226 234 232 249 259 249 198 183 181 180 215 199 196 203 203 212 224 242 252 255 245 232 230 226 225 224 219 219 223 226 202 204 207 203 188 184 189 197 201 204 208 210 211 210
205 212 221 240 252 283 264 226 185 194 177 186 195 198 188 192 211 225 235 241 245 253 233 227 224 227 228 222 225 210 197 203 195 187 188 188 192 192 191 192 194 198 203 208
180 189 215 235 238 253 280 208 181 173 153 167 176 183 181 180 185 204 221 247 260 258 253 220 223 225 223 219 206 193 196 201 197 203 207 209 212 214 206 199 198 201 206 213
172 203 204 207 224 270 284 219 143 148 148 158 161 157 156 164 167 166 176 212 231 239 209 188 189 184 182 186 189 194 193 195 200 206 204 207 205 200 192 192 194 201 209 219
76 121 250 155 27 103 133 76 167 150 148 154 159 155 155 161 161 162 160 166 158 168 182 176 179 183 189 192 194 198 192 193 198 204 205 202 205 199 200 205 206 215 228 238
40 31 61 62 38 55 51 292 167 156 154 155 158 151 156 159 159 163 166 159 154 156 160 170 178 184 186 187 187 202 197 195 200 205 209 211 206 208 215 214 220 231 237 243
39 37 42 46 26 61 29 336 166 165 165 162 163 158 159 158 167 166 166 168 164 165 161 167 173 180 186 187 186 194 196 200 204 207 214 217 215 221 223 230 224 228 232 232